Location: Erdweis
(48.5167°N, 15.3500°E)
Time: 14:30:46
(UTC+00:00)

USA 234 - Pass Details

Date: 26 January 2021
Orbit: 1100 x 1107 km, 123.0° (Epoch: 01 March)

Event Time Altitude Azimuth Distance (km) Brightness Sun altitude
Exits shadow 21:22:22 11° 297° (WNW) 2,867 5.8 -52.8°
Drops below altitude 10° 21:22:38 10° 298° (WNW) 2,965 5.9 -52.8°
Sets 21:25:15 0° 305° (NW) 3,926 6.7 -53.1°
